Pour accéder à la page souhaitée, vous devez vous authentifier
Class. scratch ↓ | Class. categorie ↓ | Dossard ↓ | Nom ↓ | Club ↓ | T. officiel ↓ | ||
|---|---|---|---|---|---|---|---|
| 322 / 363 | 38 V1F / 52 | 615 | ND ? | 01:41:18 | |||
| 324 / 363 | 39 V1F / 52 | 688 | CI ? | 01:41:42 | |||
| 337 / 363 | 40 V1F / 52 | 691 | MJ ? | 01:46:20 | |||
| 338 / 363 | 41 V1F / 52 | 817 | AP ? | 01:46:36 | |||
| 339 / 363 | 42 V1F / 52 | 680 | SH ? | 01:46:36 | |||
| 340 / 363 | 43 V1F / 52 | 729 | CL ? | Foulees Nature Gwengad | 01:47:10 | ||
| 341 / 363 | 44 V1F / 52 | 731 | ML ? | Foulees Nature Gwengad | 01:47:12 | ||
| 342 / 363 | 57 V1M / 57 | 643 | LG ? | Course Et Raid | 01:47:12 | ||
| 343 / 363 | 45 V1F / 52 | 842 | CR ? | Melgven Aven Trail | 01:47:20 | ||
| 346 / 363 | 46 V1F / 52 | 715 | SL ? | 01:47:58 | |||
| 348 / 363 | 47 V1F / 52 | 535 | NB ? | Blat | 01:48:35 | ||
| 349 / 363 | 48 V1F / 52 | 872 | IT ? | Michel Tanguy Team | 01:49:55 | ||
| 351 / 363 | 49 V1F / 52 | 520 | SB ? | Brp Guer | 01:50:19 | ||
| 357 / 363 | 50 V1F / 52 | 82 | NW ? | 02:15:34 | |||
| 358 / 363 | 51 V1F / 52 | 527 | RB ? | Les Runners Faou | 02:17:39 | ||
| 360 / 363 | 52 V1F / 52 | 631 | CF ? | Courir A Kerhuon | 02:23:51 | ||
| 361 / 363 | 83 SEM / 85 | 873 | AT ? | Decathlon Quimper | 00:55:08 | ||
| 1 / 363 | 1 SEM / 85 | 574 | SC ? | Team Running Conseil Brest | 00:56:56 | ||
| 2 / 363 | 2 SEM / 85 | 822 | MP ? | Team Humblezh | 00:57:02 | ||
| 362 / 363 | 84 SEM / 85 | 877 | TT ? | Benoittoutnu | 00:57:49 | ||
| Disqualifié | SEF | 833 | GR ? | 00:59:24 | |||
| 5 / 363 | 4 SEM / 85 | 699 | JJ ? | Saint Nazaire Olympique Sa | 01:00:58 | ||
| 6 / 363 | 5 SEM / 85 | 839 | DR ? | Cts St Thonan | 01:00:59 | ||
| 8 / 363 | 6 SEM / 85 | 667 | SG ? | 01:01:14 | |||
| 9 / 363 | 7 SEM / 85 | 587 | BC ? | 01:02:05 | |||
| 11 / 363 | 8 SEM / 85 | 863 | PS ? | Running Conseil Brest | 01:02:49 | ||
| 14 / 363 | 9 SEM / 85 | 745 | TD ? | Courir Sur Brest | 01:03:32 | ||
| 15 / 363 | 10 SEM / 85 | 772 | GM ? | Les Cavaleurs Plmcb Brest | 01:04:09 | ||
| 16 / 363 | 11 SEM / 85 | 816 | DP ? | 01:04:52 | |||
| 17 / 363 | 12 SEM / 85 | 509 | AA ? | 01:05:02 | |||
| 21 / 363 | 13 SEM / 85 | 556 | VB ? | 01:05:49 | |||
| 22 / 363 | 14 SEM / 85 | 674 | RH ? | 01:06:00 | |||
| Disqualifié | SEF | 669 | MG ? | 01:06:23 | |||
| 23 / 363 | 15 SEM / 85 | 891 | AY ? | 01:06:36 | |||
| 24 / 363 | 16 SEM / 85 | 849 | AR ? | 01:06:41 | |||
| 27 / 363 | 17 SEM / 85 | 536 | YB ? | Plozevet | 01:07:03 | ||
| 28 / 363 | 18 SEM / 85 | 743 | FL ? | 01:07:04 | |||
| 29 / 363 | 19 SEM / 85 | 553 | YB ? | Courir Sur Brest | 01:07:22 | ||
| 30 / 363 | 20 SEM / 85 | 581 | AC ? | 01:07:58 | |||
| 32 / 363 | 21 SEM / 85 | 815 | LP ? | 01:08:26 | |||
| 34 / 363 | 1 SEF / 50 | 859 | VS ? | Courir Sur Brest | 01:08:44 | ||
| 38 / 363 | 22 SEM / 85 | 814 | RP ? | 01:09:06 | |||
| 39 / 363 | 23 SEM / 85 | 692 | AJ ? | Courir Sur Brest | 01:09:10 | ||
| 48 / 363 | 24 SEM / 85 | 736 | JL ? | 01:10:53 | |||
| 51 / 363 | 25 SEM / 85 | 686 | FI ? | Plcb Les Cavaleurs | 01:11:09 | ||
| 53 / 363 | 26 SEM / 85 | 593 | MC ? | Hermine Sportsss Nature | 01:11:11 | ||
| 54 / 363 | 27 SEM / 85 | 779 | JM ? | Koala Kerhuon | 01:11:14 | ||
| 56 / 363 | 28 SEM / 85 | 853 | MR ? | 01:11:24 | |||
| 58 / 363 | 29 SEM / 85 | 880 | AT ? | 01:11:34 | |||
| 64 / 363 | 30 SEM / 85 | 545 | JB ? | 01:12:11 |
Contactez l'assistance JeVeuxCourir.fr !
Avec Listino Chrono, vous pouvez consulter votre classement en ligne quelques secondes après votre arrivée, et même avant pour les temps intermédiaires !